Bad Axe, MI

8:43 AM EST on February 10, 2016 (GMT -0500)
Thumb sunrise side | | Change Station
CLOSE
Current Station
Personal Weather Station
Location: Bad Axe, MI
Elevation: 758 ft
Nearby Weather Stations

Elev 758 ft 43.79 °N, 83.00 °W | Updated 8 minutes ago

Light Snow
Light Snow
13.5 °F
Feels Like 6 °F
N
4.7
Wind Variable Wind from WNW

Today
High -- | Low -- °F
--% Chance of Precip.
Yesterday
High -- | Low -- °F
Precip. -- in
Pressure 29.75 in
Visibility 2.5 miles
Clouds Mostly Cloudy 1000 ft
Mostly Cloudy 1700 ft
Overcast 8000 ft
Windchill 6 °F
Dew Point 11 °F
Humidity 91%
Rainfall 0.00 in
Snow Depth Not available.
7:38 AM 5:54 PM
Waxing Crescent, 5% visible
METAR KBAX 101334Z AUTO 31010KT 2 1/2SM -SN BKN010 BKN017 OVC080 M10/M12 A2975 RMK AO2 VIS 1 1/2V5 T10971116
Pressure 29.75 in
Visibility 2.5 miles
Clouds Mostly Cloudy 1000 ft
Mostly Cloudy 1700 ft
Overcast 8000 ft
Windchill 6 °F
Dew Point 11 °F
Humidity 91%
Rainfall 0.00 in
Snow Depth Not available.
7:38 AM 5:54 PM
Waxing Crescent, 5% visible
METAR KBAX 101334Z AUTO 31010KT 2 1/2SM -SN BKN010 BKN017 OVC080 M10/M12 A2975 RMK AO2 VIS 1 1/2V5 T10971116

10-Day Weather Forecast

Almanac

Astronomy

Feb. 10, 2016 Rise Set
Actual Time
Civil Twilight
Nautical Twilight
Astronomical Twilight
Moon
Length of Visible Light
Length of Day
Tomorrow will be .
, % of the Moon is Illuminated

Today's Extremes

State Highs State Lows

Community

WunderPhotos

Upload Photos

1,891,845 photos uploaded!

WunderBlog® & News

Nearby

Air Quality

  Air Quality AQ Index Pollutant
Not available.

Snow Depth

Station Depth Elevation

Earthquake Activity

City Distance Mag. Time & Date
Minimum magnitude displayed is 2.5.

Coastal Water Temperatures

Place Temperature

Stations

Nearby Weather Stations

Station Location Temp. Windchill Dew Point Humidity Wind Precip. Elev Updated Type
                   

Watches & Warnings

There are currently no watches in effect.